owner,sensor,date,latitude,longitude,vertical_datum,sea_water_temperature,qcFlag
BP,ioos:station:wmo:42880:1,2022-12-03T17:59:00Z,27.2189,-90.0469,10.5,23.4,11111222
BP,ioos:station:wmo:42880:1,2022-12-03T18:09:00Z,27.2189,-90.0469,10.5,23.4,11111222
BP,ioos:station:wmo:42880:1,2022-12-03T18:19:00Z,27.2189,-90.0469,10.5,23.4,11111222
BP,ioos:station:wmo:42880:1,2022-12-03T18:29:00Z,27.2189,-90.0469,10.5,23.4,11111222
BP,ioos:station:wmo:42880:1,2022-12-03T18:39:00Z,27.2189,-90.0469,10.5,23.4,11111222
BP,ioos:station:wmo:42880:1,2022-12-03T18:49:00Z,27.2189,-90.0469,10.5,23.4,11111222
BP,ioos:station:wmo:42880:1,2022-12-03T18:59:00Z,27.2189,-90.0469,10.5,23.5,11111222
BP,ioos:station:wmo:42880:1,2022-12-03T19:09:00Z,27.2189,-90.0469,10.5,23.4,11111222
BP,ioos:station:wmo:42880:1,2022-12-03T19:19:00Z,27.2189,-90.0469,10.5,23.4,11111222
BP,ioos:station:wmo:42880:1,2022-12-03T19:29:00Z,27.2189,-90.0469,10.5,23.4,11111222
BP,ioos:station:wmo:42880:1,2022-12-03T19:39:00Z,27.2189,-90.0469,10.5,23.3,11111222
BP,ioos:station:wmo:42880:1,2022-12-03T19:49:00Z,27.2189,-90.0469,10.5,23.3,11111222
BP,ioos:station:wmo:42880:1,2022-12-03T19:59:00Z,27.2189,-90.0469,10.5,23.3,11111222
BP,ioos:station:wmo:42880:1,2022-12-03T20:09:00Z,27.2189,-90.0469,10.5,23.3,11111222
BP,ioos:station:wmo:42880:1,2022-12-03T20:19:00Z,27.2189,-90.0469,10.5,23.2,11111222
BP,ioos:station:wmo:42880:1,2022-12-03T20:29:00Z,27.2189,-90.0469,10.5,23.2,11111222
BP,ioos:station:wmo:42880:1,2022-12-03T20:39:00Z,27.2189,-90.0469,10.5,23.2,11111222
BP,ioos:station:wmo:42880:1,2022-12-03T20:49:00Z,27.2189,-90.0469,10.5,23.2,11111222
BP,ioos:station:wmo:42880:1,2022-12-03T20:59:00Z,27.2189,-90.0469,10.5,23.2,11111222
BP,ioos:station:wmo:42880:1,2022-12-03T21:09:00Z,27.2189,-90.0469,10.5,23.2,11111222
BP,ioos:station:wmo:42880:1,2022-12-03T21:19:00Z,27.2189,-90.0469,10.5,23.2,11111222
BP,ioos:station:wmo:42880:1,2022-12-03T21:29:00Z,27.2189,-90.0469,10.5,23.2,11111222
BP,ioos:station:wmo:42880:1,2022-12-03T21:39:00Z,27.2189,-90.0469,10.5,23.2,11111222
BP,ioos:station:wmo:42880:1,2022-12-03T21:49:00Z,27.2189,-90.0469,10.5,23.2,11111222
BP,ioos:station:wmo:42880:1,2022-12-03T21:59:00Z,27.2189,-90.0469,10.5,23.3,11111222
BP,ioos:station:wmo:42880:1,2022-12-03T22:09:00Z,27.2189,-90.0469,10.5,23.3,11111222
BP,ioos:station:wmo:42880:1,2022-12-03T22:19:00Z,27.2189,-90.0469,10.5,23.4,11111222
BP,ioos:station:wmo:42880:1,2022-12-03T22:29:00Z,27.2189,-90.0469,10.5,23.4,11111222
BP,ioos:station:wmo:42880:1,2022-12-03T22:39:00Z,27.2189,-90.0469,10.5,23.3,11111222
BP,ioos:station:wmo:42880:1,2022-12-03T22:49:00Z,27.2189,-90.0469,10.5,23.3,11111222
BP,ioos:station:wmo:42880:1,2022-12-03T22:59:00Z,27.2189,-90.0469,10.5,23.3,11111222
BP,ioos:station:wmo:42880:1,2022-12-03T23:09:00Z,27.2189,-90.0469,10.5,23.3,11111222
BP,ioos:station:wmo:42880:1,2022-12-03T23:19:00Z,27.2189,-90.0469,10.5,23.3,11111222
BP,ioos:station:wmo:42880:1,2022-12-03T23:29:00Z,27.2189,-90.0469,10.5,23.3,11111222
BP,ioos:station:wmo:42880:1,2022-12-03T23:39:00Z,27.2189,-90.0469,10.5,23.3,11111222
BP,ioos:station:wmo:42880:1,2022-12-03T23:49:00Z,27.2189,-90.0469,10.5,23.3,11111222
BP,ioos:station:wmo:42880:1,2022-12-03T23:59:00Z,27.2189,-90.0469,10.5,23.3,11111222
BP,ioos:station:wmo:42880:1,2022-12-04T00:10:00Z,27.2189,-90.0469,10.5,23.4,11111222
BP,ioos:station:wmo:42880:1,2022-12-04T00:20:00Z,27.2189,-90.0469,10.5,23.3,11111222
BP,ioos:station:wmo:42880:1,2022-12-04T00:30:00Z,27.2189,-90.0469,10.5,23.3,11111222
BP,ioos:station:wmo:42880:1,2022-12-04T00:40:00Z,27.2189,-90.0469,10.5,23.4,11111222
BP,ioos:station:wmo:42880:1,2022-12-04T00:50:00Z,27.2189,-90.0469,10.5,23.4,11111222
BP,ioos:station:wmo:42880:1,2022-12-04T01:00:00Z,27.2189,-90.0469,10.5,23.3,11111222
BP,ioos:station:wmo:42880:1,2022-12-04T01:10:00Z,27.2189,-90.0469,10.5,23.3,11111222
BP,ioos:station:wmo:42880:1,2022-12-04T01:20:00Z,27.2189,-90.0469,10.5,23.3,11111222
BP,ioos:station:wmo:42880:1,2022-12-04T01:30:00Z,27.2189,-90.0469,10.5,23.2,11111222
BP,ioos:station:wmo:42880:1,2022-12-04T01:40:00Z,27.2189,-90.0469,10.5,23.2,11111222
BP,ioos:station:wmo:42880:1,2022-12-04T01:50:00Z,27.2189,-90.0469,10.5,23.2,11111222
BP,ioos:station:wmo:42880:1,2022-12-04T02:00:00Z,27.2189,-90.0469,10.5,23.2,11111222
BP,ioos:station:wmo:42880:1,2022-12-04T02:10:00Z,27.2189,-90.0469,10.5,23.3,11111222
BP,ioos:station:wmo:42880:1,2022-12-04T02:20:00Z,27.2189,-90.0469,10.5,23.3,11111222
BP,ioos:station:wmo:42880:1,2022-12-04T02:30:00Z,27.2189,-90.0469,10.5,23.3,11111222
BP,ioos:station:wmo:42880:1,2022-12-04T02:40:00Z,27.2189,-90.0469,10.5,23.2,11111222
BP,ioos:station:wmo:42880:1,2022-12-04T02:50:00Z,27.2189,-90.0469,10.5,23.2,11111222
BP,ioos:station:wmo:42880:1,2022-12-04T03:00:00Z,27.2189,-90.0469,10.5,23.2,11111222
BP,ioos:station:wmo:42880:1,2022-12-04T03:10:00Z,27.2189,-90.0469,10.5,23.2,11111222
BP,ioos:station:wmo:42880:1,2022-12-04T03:20:00Z,27.2189,-90.0469,10.5,23.2,11111222
BP,ioos:station:wmo:42880:1,2022-12-04T03:30:00Z,27.2189,-90.0469,10.5,23.2,11111222
BP,ioos:station:wmo:42880:1,2022-12-04T03:40:00Z,27.2189,-90.0469,10.5,23.2,11111222
BP,ioos:station:wmo:42880:1,2022-12-04T03:50:00Z,27.2189,-90.0469,10.5,23.3,11111222
BP,ioos:station:wmo:42880:1,2022-12-04T04:00:00Z,27.2189,-90.0469,10.5,23.4,11111222
BP,ioos:station:wmo:42880:1,2022-12-04T04:10:00Z,27.2189,-90.0469,10.5,23.4,11111222
BP,ioos:station:wmo:42880:1,2022-12-04T04:20:00Z,27.2189,-90.0469,10.5,23.4,11111222
BP,ioos:station:wmo:42880:1,2022-12-04T04:30:00Z,27.2189,-90.0469,10.5,23.3,11111222
BP,ioos:station:wmo:42880:1,2022-12-04T04:40:00Z,27.2189,-90.0469,10.5,23.3,11111222
BP,ioos:station:wmo:42880:1,2022-12-04T04:50:00Z,27.2189,-90.0469,10.5,23.4,11111222
BP,ioos:station:wmo:42880:1,2022-12-04T05:00:00Z,27.2189,-90.0469,10.5,23.4,11111222
BP,ioos:station:wmo:42880:1,2022-12-04T05:10:00Z,27.2189,-90.0469,10.5,23.4,11111222
BP,ioos:station:wmo:42880:1,2022-12-04T05:20:00Z,27.2189,-90.0469,10.5,23.4,11111222
BP,ioos:station:wmo:42880:1,2022-12-04T05:30:00Z,27.2189,-90.0469,10.5,23.3,11111222
BP,ioos:station:wmo:42880:1,2022-12-04T05:40:00Z,27.2189,-90.0469,10.5,23.3,11111222
BP,ioos:station:wmo:42880:1,2022-12-04T05:50:00Z,27.2189,-90.0469,10.5,23.3,11111222
BP,ioos:station:wmo:42880:1,2022-12-04T06:00:00Z,27.2189,-90.0469,10.5,23.3,11111222
BP,ioos:station:wmo:42880:1,2022-12-04T06:10:00Z,27.2189,-90.0469,10.5,23.2,11111222
BP,ioos:station:wmo:42880:1,2022-12-04T06:20:00Z,27.2189,-90.0469,10.5,23.2,11111222
BP,ioos:station:wmo:42880:1,2022-12-04T06:30:00Z,27.2189,-90.0469,10.4,23.2,11111222
BP,ioos:station:wmo:42880:1,2022-12-04T06:40:00Z,27.2189,-90.0469,10.4,23.2,11111222
BP,ioos:station:wmo:42880:1,2022-12-04T06:50:00Z,27.2189,-90.0469,10.4,23.2,11111222
BP,ioos:station:wmo:42880:1,2022-12-04T07:00:00Z,27.2189,-90.0469,10.4,23.2,11111222
BP,ioos:station:wmo:42880:1,2022-12-04T07:10:00Z,27.2189,-90.0469,10.4,23.2,11111222
BP,ioos:station:wmo:42880:1,2022-12-04T07:21:00Z,27.2189,-90.0469,10.4,23.2,11111222
BP,ioos:station:wmo:42880:1,2022-12-04T07:31:00Z,27.2189,-90.0469,10.4,23.2,11111222
BP,ioos:station:wmo:42880:1,2022-12-04T07:41:00Z,27.2189,-90.0469,10.4,23.3,11111222
BP,ioos:station:wmo:42880:1,2022-12-04T07:51:00Z,27.2189,-90.0469,10.4,23.3,11111222
BP,ioos:station:wmo:42880:1,2022-12-04T08:01:00Z,27.2189,-90.0469,10.4,23.3,11111222
BP,ioos:station:wmo:42880:1,2022-12-04T08:11:00Z,27.2189,-90.0469,10.4,23.4,11111222
BP,ioos:station:wmo:42880:1,2022-12-04T08:21:00Z,27.2189,-90.0469,10.4,23.4,11111222
BP,ioos:station:wmo:42880:1,2022-12-04T08:31:00Z,27.2189,-90.0469,10.4,23.4,11111222
BP,ioos:station:wmo:42880:1,2022-12-04T08:41:00Z,27.2189,-90.0469,10.4,23.4,11111222
BP,ioos:station:wmo:42880:1,2022-12-04T08:51:00Z,27.2189,-90.0469,10.4,23.4,11111222
BP,ioos:station:wmo:42880:1,2022-12-04T09:01:00Z,27.2189,-90.0469,10.4,23.3,11111222
BP,ioos:station:wmo:42880:1,2022-12-04T09:11:00Z,27.2189,-90.0469,10.4,23.3,11111222
BP,ioos:station:wmo:42880:1,2022-12-04T09:21:00Z,27.2189,-90.0469,10.4,23.3,11111222
BP,ioos:station:wmo:42880:1,2022-12-04T09:31:00Z,27.2189,-90.0469,10.4,23.4,11111222
BP,ioos:station:wmo:42880:1,2022-12-04T09:41:00Z,27.2189,-90.0469,10.4,23.4,11111222
BP,ioos:station:wmo:42880:1,2022-12-04T09:51:00Z,27.2189,-90.0469,10.4,23.4,11111222
BP,ioos:station:wmo:42880:1,2022-12-04T10:01:00Z,27.2189,-90.0469,10.4,23.4,11111222
BP,ioos:station:wmo:42880:1,2022-12-04T10:11:00Z,27.2189,-90.0469,10.4,23.4,11111222
BP,ioos:station:wmo:42880:1,2022-12-04T10:21:00Z,27.2189,-90.0469,10.4,23.4,11111222
BP,ioos:station:wmo:42880:1,2022-12-04T10:31:00Z,27.2189,-90.0469,10.4,23.3,11111222
BP,ioos:station:wmo:42880:1,2022-12-04T10:41:00Z,27.2189,-90.0469,10.3,23.3,11111222
BP,ioos:station:wmo:42880:1,2022-12-04T10:51:00Z,27.2189,-90.0469,10.3,23.3,11111222
BP,ioos:station:wmo:42880:1,2022-12-04T11:01:00Z,27.2189,-90.0469,10.3,23.3,11111222
BP,ioos:station:wmo:42880:1,2022-12-04T11:11:00Z,27.2189,-90.0469,10.3,23.3,11111222
BP,ioos:station:wmo:42880:1,2022-12-04T11:21:00Z,27.2189,-90.0469,10.3,23.3,11111222
BP,ioos:station:wmo:42880:1,2022-12-04T11:31:00Z,27.2189,-90.0469,10.3,23.3,11111222
BP,ioos:station:wmo:42880:1,2022-12-04T11:41:00Z,27.2189,-90.0469,10.3,23.4,11111222
BP,ioos:station:wmo:42880:1,2022-12-04T11:51:00Z,27.2189,-90.0469,10.3,23.4,11111222
BP,ioos:station:wmo:42880:1,2022-12-04T12:01:00Z,27.2189,-90.0469,10.3,23.4,11111222
BP,ioos:station:wmo:42880:1,2022-12-04T12:11:00Z,27.2189,-90.0469,10.3,23.4,11111222
BP,ioos:station:wmo:42880:1,2022-12-04T12:21:00Z,27.2189,-90.0469,10.3,23.4,11111222
BP,ioos:station:wmo:42880:1,2022-12-04T12:31:00Z,27.2189,-90.0469,10.3,23.5,11111222
BP,ioos:station:wmo:42880:1,2022-12-04T12:41:00Z,27.2189,-90.0469,10.3,23.9,11111222
BP,ioos:station:wmo:42880:1,2022-12-04T12:51:00Z,27.2189,-90.0469,10.3,24.3,11111222
BP,ioos:station:wmo:42880:1,2022-12-04T13:01:00Z,27.2189,-90.0469,10.3,24.4,11111222
BP,ioos:station:wmo:42880:1,2022-12-04T13:11:00Z,27.2189,-90.0469,10.3,24.4,11111222
BP,ioos:station:wmo:42880:1,2022-12-04T13:21:00Z,27.2189,-90.0469,10.3,24.5,11111222
BP,ioos:station:wmo:42880:1,2022-12-04T13:31:00Z,27.2189,-90.0469,10.3,24.5,11111222
BP,ioos:station:wmo:42880:1,2022-12-04T13:41:00Z,27.2189,-90.0469,10.3,24.4,11111222
BP,ioos:station:wmo:42880:1,2022-12-04T13:51:00Z,27.2189,-90.0469,10.3,24.5,11111222
BP,ioos:station:wmo:42880:1,2022-12-04T14:01:00Z,27.2189,-90.0469,10.3,24.3,11111222
BP,ioos:station:wmo:42880:1,2022-12-04T14:11:00Z,27.2189,-90.0469,10.3,24.3,11111222
BP,ioos:station:wmo:42880:1,2022-12-04T14:21:00Z,27.2189,-90.0469,10.3,24.2,11111222
BP,ioos:station:wmo:42880:1,2022-12-04T14:31:00Z,27.2189,-90.0469,10.3,24.2,11111222
BP,ioos:station:wmo:42880:1,2022-12-04T14:42:00Z,27.2189,-90.0469,10.3,24.1,11111222
BP,ioos:station:wmo:42880:1,2022-12-04T14:52:00Z,27.2189,-90.0469,10.4,24.1,11111222
BP,ioos:station:wmo:42880:1,2022-12-04T15:02:00Z,27.2189,-90.0469,10.4,24.3,11111222
BP,ioos:station:wmo:42880:1,2022-12-04T15:12:00Z,27.2189,-90.0469,10.4,24.4,11111222
BP,ioos:station:wmo:42880:1,2022-12-04T15:22:00Z,27.2189,-90.0469,10.3,24.4,11111222
BP,ioos:station:wmo:42880:1,2022-12-04T15:32:00Z,27.2189,-90.0469,10.4,24.4,11111222
BP,ioos:station:wmo:42880:1,2022-12-04T15:42:00Z,27.2189,-90.0469,10.4,24.4,11111222
BP,ioos:station:wmo:42880:1,2022-12-04T15:52:00Z,27.2189,-90.0469,10.4,24.4,11111222
BP,ioos:station:wmo:42880:1,2022-12-04T16:02:00Z,27.2189,-90.0469,10.4,24.3,11111222
BP,ioos:station:wmo:42880:1,2022-12-04T16:12:00Z,27.2189,-90.0469,10.4,24.4,11111222
BP,ioos:station:wmo:42880:1,2022-12-04T16:22:00Z,27.2189,-90.0469,10.4,24.4,11111222
BP,ioos:station:wmo:42880:1,2022-12-04T16:32:00Z,27.2189,-90.0469,10.4,24.3,11111222
BP,ioos:station:wmo:42880:1,2022-12-04T16:42:00Z,27.2189,-90.0469,10.4,23.8,11111222
BP,ioos:station:wmo:42880:1,2022-12-04T16:52:00Z,27.2189,-90.0469,10.4,23.7,11111222
BP,ioos:station:wmo:42880:1,2022-12-04T17:02:00Z,27.2189,-90.0469,10.4,23.8,11111222
BP,ioos:station:wmo:42880:1,2022-12-04T17:12:00Z,27.2189,-90.0469,10.4,23.9,11111222
BP,ioos:station:wmo:42880:1,2022-12-04T17:22:00Z,27.2189,-90.0469,10.4,23.9,11111222
BP,ioos:station:wmo:42880:1,2022-12-04T17:32:00Z,27.2189,-90.0469,10.4,23.9,11111222
BP,ioos:station:wmo:42880:1,2022-12-04T17:42:00Z,27.2189,-90.0469,10.4,24.0,11111222
BP,ioos:station:wmo:42880:1,2022-12-04T17:52:00Z,27.2189,-90.0469,10.4,24.1,11111222
BP,ioos:station:wmo:42880:1,2022-12-04T18:02:00Z,27.2189,-90.0469,10.4,24.1,11111222
BP,ioos:station:wmo:42880:1,2022-12-04T18:12:00Z,27.2189,-90.0469,10.4,24.1,11111222
BP,ioos:station:wmo:42880:1,2022-12-04T18:22:00Z,27.2189,-90.0469,10.4,24.1,11111222
BP,ioos:station:wmo:42880:1,2022-12-04T18:32:00Z,27.2189,-90.0469,10.4,24.1,11111222
BP,ioos:station:wmo:42880:1,2022-12-04T18:42:00Z,27.2189,-90.0469,10.4,24.3,11111222
BP,ioos:station:wmo:42880:1,2022-12-04T18:52:00Z,27.2189,-90.0469,10.4,24.2,11111222
BP,ioos:station:wmo:42880:1,2022-12-04T19:02:00Z,27.2189,-90.0469,10.4,24.2,11111222
BP,ioos:station:wmo:42880:1,2022-12-04T19:12:00Z,27.2189,-90.0469,10.4,24.2,11111222
BP,ioos:station:wmo:42880:1,2022-12-04T19:22:00Z,27.2189,-90.0469,10.4,24.2,11111222
BP,ioos:station:wmo:42880:1,2022-12-04T19:32:00Z,27.2189,-90.0469,10.4,24.2,11111222
BP,ioos:station:wmo:42880:1,2022-12-04T19:42:00Z,27.2189,-90.0469,10.4,24.3,11111222
BP,ioos:station:wmo:42880:1,2022-12-04T19:52:00Z,27.2189,-90.0469,10.4,24.4,11111222
BP,ioos:station:wmo:42880:1,2022-12-04T20:02:00Z,27.2189,-90.0469,10.4,24.4,11111222
BP,ioos:station:wmo:42880:1,2022-12-04T20:12:00Z,27.2189,-90.0469,10.4,24.4,11111222
BP,ioos:station:wmo:42880:1,2022-12-04T20:22:00Z,27.2189,-90.0469,10.4,24.5,11111222
BP,ioos:station:wmo:42880:1,2022-12-04T20:32:00Z,27.2189,-90.0469,10.4,24.5,11111222
BP,ioos:station:wmo:42880:1,2022-12-04T20:42:00Z,27.2189,-90.0469,10.4,24.6,11111222
BP,ioos:station:wmo:42880:1,2022-12-04T20:52:00Z,27.2189,-90.0469,10.4,24.5,11111222
BP,ioos:station:wmo:42880:1,2022-12-04T21:02:00Z,27.2189,-90.0469,10.4,24.6,11111222
BP,ioos:station:wmo:42880:1,2022-12-04T21:12:00Z,27.2189,-90.0469,10.4,24.6,11111222
BP,ioos:station:wmo:42880:1,2022-12-04T21:22:00Z,27.2189,-90.0469,10.4,24.7,11111222
BP,ioos:station:wmo:42880:1,2022-12-04T21:32:00Z,27.2189,-90.0469,10.4,24.6,11111222
BP,ioos:station:wmo:42880:1,2022-12-04T21:42:00Z,27.2189,-90.0469,10.4,24.8,11111222
BP,ioos:station:wmo:42880:1,2022-12-04T21:53:00Z,27.2189,-90.0469,10.4,25.2,11111222
BP,ioos:station:wmo:42880:1,2022-12-04T22:03:00Z,27.2189,-90.0469,10.3,25.4,11111222
BP,ioos:station:wmo:42880:1,2022-12-04T22:13:00Z,27.2189,-90.0469,10.3,25.4,11111222
BP,ioos:station:wmo:42880:1,2022-12-04T22:23:00Z,27.2189,-90.0469,10.3,25.6,11111222
BP,ioos:station:wmo:42880:1,2022-12-04T22:33:00Z,27.2189,-90.0469,10.4,25.6,11111222
BP,ioos:station:wmo:42880:1,2022-12-04T22:43:00Z,27.2189,-90.0469,10.4,25.7,11111222
BP,ioos:station:wmo:42880:1,2022-12-04T22:53:00Z,27.2189,-90.0469,10.4,25.7,11111222
BP,ioos:station:wmo:42880:1,2022-12-04T23:03:00Z,27.2189,-90.0469,10.3,25.8,11111222
BP,ioos:station:wmo:42880:1,2022-12-04T23:13:00Z,27.2189,-90.0469,10.3,25.8,11111222
BP,ioos:station:wmo:42880:1,2022-12-04T23:23:00Z,27.2189,-90.0469,10.3,25.8,11111222
BP,ioos:station:wmo:42880:1,2022-12-04T23:33:00Z,27.2189,-90.0469,10.3,25.9,11111222
BP,ioos:station:wmo:42880:1,2022-12-04T23:43:00Z,27.2189,-90.0469,10.3,25.9,11111222
BP,ioos:station:wmo:42880:1,2022-12-04T23:53:00Z,27.2189,-90.0469,10.3,25.9,11111222
BP,ioos:station:wmo:42880:1,2022-12-05T00:03:00Z,27.2189,-90.0469,10.4,25.9,11111222
BP,ioos:station:wmo:42880:1,2022-12-05T00:13:00Z,27.2189,-90.0469,10.4,25.9,11111222
BP,ioos:station:wmo:42880:1,2022-12-05T00:23:00Z,27.2189,-90.0469,10.4,25.9,11111222
BP,ioos:station:wmo:42880:1,2022-12-05T00:33:00Z,27.2189,-90.0469,10.4,25.9,11111222
BP,ioos:station:wmo:42880:1,2022-12-05T00:43:00Z,27.2189,-90.0469,10.4,25.9,11111222
BP,ioos:station:wmo:42880:1,2022-12-05T00:53:00Z,27.2189,-90.0469,10.4,25.9,11111222
BP,ioos:station:wmo:42880:1,2022-12-05T01:03:00Z,27.2189,-90.0469,10.4,25.9,11111222
BP,ioos:station:wmo:42880:1,2022-12-05T01:13:00Z,27.2189,-90.0469,10.4,25.9,11111222
BP,ioos:station:wmo:42880:1,2022-12-05T01:23:00Z,27.2189,-90.0469,10.4,25.9,11111222
BP,ioos:station:wmo:42880:1,2022-12-05T01:33:00Z,27.2189,-90.0469,10.4,25.9,11111222
BP,ioos:station:wmo:42880:1,2022-12-05T01:43:00Z,27.2189,-90.0469,10.4,25.9,11111222
BP,ioos:station:wmo:42880:1,2022-12-05T01:53:00Z,27.2189,-90.0469,10.4,25.9,11111222
BP,ioos:station:wmo:42880:1,2022-12-05T02:03:00Z,27.2189,-90.0469,10.4,25.9,11111222
BP,ioos:station:wmo:42880:1,2022-12-05T02:13:00Z,27.2189,-90.0469,10.4,25.9,11111222
BP,ioos:station:wmo:42880:1,2022-12-05T02:23:00Z,27.2189,-90.0469,10.4,25.9,11111222
BP,ioos:station:wmo:42880:1,2022-12-05T02:33:00Z,27.2189,-90.0469,10.4,25.9,11111222
BP,ioos:station:wmo:42880:1,2022-12-05T02:43:00Z,27.2189,-90.0469,10.4,25.9,11111222
BP,ioos:station:wmo:42880:1,2022-12-05T02:53:00Z,27.2189,-90.0469,10.4,25.9,11111222
BP,ioos:station:wmo:42880:1,2022-12-05T03:03:00Z,27.2189,-90.0469,10.4,25.8,11111222
BP,ioos:station:wmo:42880:1,2022-12-05T03:13:00Z,27.2189,-90.0469,10.4,25.8,11111222
BP,ioos:station:wmo:42880:1,2022-12-05T03:23:00Z,27.2189,-90.0469,10.4,25.8,11111222
BP,ioos:station:wmo:42880:1,2022-12-05T03:33:00Z,27.2189,-90.0469,10.4,25.8,11111222
BP,ioos:station:wmo:42880:1,2022-12-05T03:43:00Z,27.2189,-90.0469,10.4,25.8,11111222
BP,ioos:station:wmo:42880:1,2022-12-05T03:53:00Z,27.2189,-90.0469,10.4,25.8,11111222
BP,ioos:station:wmo:42880:1,2022-12-05T04:03:00Z,27.2189,-90.0469,10.4,25.8,11111222
BP,ioos:station:wmo:42880:1,2022-12-05T04:13:00Z,27.2189,-90.0469,10.4,25.8,11111222
BP,ioos:station:wmo:42880:1,2022-12-05T04:23:00Z,27.2189,-90.0469,10.4,25.8,11111222
BP,ioos:station:wmo:42880:1,2022-12-05T04:33:00Z,27.2189,-90.0469,10.4,25.9,11111222
BP,ioos:station:wmo:42880:1,2022-12-05T04:43:00Z,27.2189,-90.0469,10.4,25.9,11111222
BP,ioos:station:wmo:42880:1,2022-12-05T04:53:00Z,27.2189,-90.0469,10.4,25.8,11111222
BP,ioos:station:wmo:42880:1,2022-12-05T05:03:00Z,27.2189,-90.0469,10.4,25.8,11111222
BP,ioos:station:wmo:42880:1,2022-12-05T05:14:00Z,27.2189,-90.0469,10.4,25.8,11111222
BP,ioos:station:wmo:42880:1,2022-12-05T05:24:00Z,27.2189,-90.0469,10.4,25.8,11111222
BP,ioos:station:wmo:42880:1,2022-12-05T05:34:00Z,27.2189,-90.0469,10.4,25.9,11111222
BP,ioos:station:wmo:42880:1,2022-12-05T05:44:00Z,27.2189,-90.0469,10.4,25.9,11111222
BP,ioos:station:wmo:42880:1,2022-12-05T05:54:00Z,27.2189,-90.0469,10.4,25.8,11111222
BP,ioos:station:wmo:42880:1,2022-12-05T06:04:00Z,27.2189,-90.0469,10.4,25.8,11111222
BP,ioos:station:wmo:42880:1,2022-12-05T06:14:00Z,27.2189,-90.0469,10.4,25.8,11111222
BP,ioos:station:wmo:42880:1,2022-12-05T06:24:00Z,27.2189,-90.0469,10.4,25.8,11111222
BP,ioos:station:wmo:42880:1,2022-12-05T06:34:00Z,27.2189,-90.0469,10.4,25.8,11111222
BP,ioos:station:wmo:42880:1,2022-12-05T06:44:00Z,27.2189,-90.0469,10.4,25.8,11111222
BP,ioos:station:wmo:42880:1,2022-12-05T06:54:00Z,27.2189,-90.0469,10.4,25.8,11111222
BP,ioos:station:wmo:42880:1,2022-12-05T07:04:00Z,27.2189,-90.0469,10.4,25.8,11111222
BP,ioos:station:wmo:42880:1,2022-12-05T07:14:00Z,27.2189,-90.0469,10.3,25.8,11111222
BP,ioos:station:wmo:42880:1,2022-12-05T07:24:00Z,27.2189,-90.0469,10.3,25.8,11111222
BP,ioos:station:wmo:42880:1,2022-12-05T07:34:00Z,27.2189,-90.0469,10.3,25.8,11111222
BP,ioos:station:wmo:42880:1,2022-12-05T07:44:00Z,27.2189,-90.0469,10.3,25.8,11111222
BP,ioos:station:wmo:42880:1,2022-12-05T07:54:00Z,27.2189,-90.0469,10.4,25.8,11111222
BP,ioos:station:wmo:42880:1,2022-12-05T08:04:00Z,27.2189,-90.0469,10.5,25.8,11111222
BP,ioos:station:wmo:42880:1,2022-12-05T08:14:00Z,27.2189,-90.0469,10.5,25.8,11111222
BP,ioos:station:wmo:42880:1,2022-12-05T08:24:00Z,27.2189,-90.0469,10.5,25.8,11111222
BP,ioos:station:wmo:42880:1,2022-12-05T08:34:00Z,27.2189,-90.0469,10.5,25.8,11111222
BP,ioos:station:wmo:42880:1,2022-12-05T08:44:00Z,27.2189,-90.0469,10.5,25.8,11111222
BP,ioos:station:wmo:42880:1,2022-12-05T08:54:00Z,27.2189,-90.0469,10.5,25.8,11111222
BP,ioos:station:wmo:42880:1,2022-12-05T09:04:00Z,27.2189,-90.0469,10.5,25.8,11111222
BP,ioos:station:wmo:42880:1,2022-12-05T09:14:00Z,27.2189,-90.0469,10.5,25.8,11111222
BP,ioos:station:wmo:42880:1,2022-12-05T09:24:00Z,27.2189,-90.0469,10.4,25.8,11111222
BP,ioos:station:wmo:42880:1,2022-12-05T09:34:00Z,27.2189,-90.0469,10.4,25.8,11111222
BP,ioos:station:wmo:42880:1,2022-12-05T09:44:00Z,27.2189,-90.0469,10.5,25.8,11111222
BP,ioos:station:wmo:42880:1,2022-12-05T09:54:00Z,27.2189,-90.0469,10.5,25.8,11111222
BP,ioos:station:wmo:42880:1,2022-12-05T10:04:00Z,27.2189,-90.0469,10.5,25.8,11111222
BP,ioos:station:wmo:42880:1,2022-12-05T10:14:00Z,27.2189,-90.0469,10.5,25.8,11111222
BP,ioos:station:wmo:42880:1,2022-12-05T10:24:00Z,27.2189,-90.0469,10.5,25.8,11111222
BP,ioos:station:wmo:42880:1,2022-12-05T10:34:00Z,27.2189,-90.0469,10.5,25.8,11111222
BP,ioos:station:wmo:42880:1,2022-12-05T10:44:00Z,27.2189,-90.0469,10.5,25.8,11111222
BP,ioos:station:wmo:42880:1,2022-12-05T10:54:00Z,27.2189,-90.0469,10.5,25.8,11111222
BP,ioos:station:wmo:42880:1,2022-12-05T11:04:00Z,27.2189,-90.0469,10.5,25.8,11111222
BP,ioos:station:wmo:42880:1,2022-12-05T11:14:00Z,27.2189,-90.0469,10.5,25.8,11111222
BP,ioos:station:wmo:42880:1,2022-12-05T11:24:00Z,27.2189,-90.0469,10.5,25.8,11111222
BP,ioos:station:wmo:42880:1,2022-12-05T11:34:00Z,27.2189,-90.0469,10.5,25.8,11111222
BP,ioos:station:wmo:42880:1,2022-12-05T11:44:00Z,27.2189,-90.0469,10.5,25.8,11111222
BP,ioos:station:wmo:42880:1,2022-12-05T11:54:00Z,27.2189,-90.0469,10.5,25.8,11111222
BP,ioos:station:wmo:42880:1,2022-12-05T12:04:00Z,27.2189,-90.0469,10.5,25.8,11111222
BP,ioos:station:wmo:42880:1,2022-12-05T12:14:00Z,27.2189,-90.0469,10.5,25.8,11111222
BP,ioos:station:wmo:42880:1,2022-12-05T12:24:00Z,27.2189,-90.0469,10.5,25.8,11111222
BP,ioos:station:wmo:42880:1,2022-12-05T12:35:00Z,27.2189,-90.0469,10.5,25.8,11111222
BP,ioos:station:wmo:42880:1,2022-12-05T12:45:00Z,27.2189,-90.0469,10.5,25.8,11111222
BP,ioos:station:wmo:42880:1,2022-12-05T12:55:00Z,27.2189,-90.0469,10.4,25.8,11111222
BP,ioos:station:wmo:42880:1,2022-12-05T13:05:00Z,27.2189,-90.0469,10.5,25.8,11111222
BP,ioos:station:wmo:42880:1,2022-12-05T13:15:00Z,27.2189,-90.0469,10.5,25.8,11111222
BP,ioos:station:wmo:42880:1,2022-12-05T13:25:00Z,27.2189,-90.0469,10.5,25.8,11111222
BP,ioos:station:wmo:42880:1,2022-12-05T13:35:00Z,27.2189,-90.0469,10.5,25.8,11111222
BP,ioos:station:wmo:42880:1,2022-12-05T13:45:00Z,27.2189,-90.0469,10.5,25.8,11111222
BP,ioos:station:wmo:42880:1,2022-12-05T13:55:00Z,27.2189,-90.0469,10.5,25.8,11111222
BP,ioos:station:wmo:42880:1,2022-12-05T14:05:00Z,27.2189,-90.0469,10.5,25.8,11111222
BP,ioos:station:wmo:42880:1,2022-12-05T14:15:00Z,27.2189,-90.0469,10.5,25.8,11111222
BP,ioos:station:wmo:42880:1,2022-12-05T14:25:00Z,27.2189,-90.0469,10.5,25.8,11111222
BP,ioos:station:wmo:42880:1,2022-12-05T14:35:00Z,27.2189,-90.0469,10.5,25.8,11111222
BP,ioos:station:wmo:42880:1,2022-12-05T14:45:00Z,27.2189,-90.0469,10.5,25.8,11111222
BP,ioos:station:wmo:42880:1,2022-12-05T14:55:00Z,27.2189,-90.0469,10.5,25.8,11111222
BP,ioos:station:wmo:42880:1,2022-12-05T15:05:00Z,27.2189,-90.0469,10.5,25.8,11111222
BP,ioos:station:wmo:42880:1,2022-12-05T15:15:00Z,27.2189,-90.0469,10.5,25.8,11111222
BP,ioos:station:wmo:42880:1,2022-12-05T15:25:00Z,27.2189,-90.0469,10.5,25.8,11111222
BP,ioos:station:wmo:42880:1,2022-12-05T15:35:00Z,27.2189,-90.0469,10.5,25.8,11111222
BP,ioos:station:wmo:42880:1,2022-12-05T15:45:00Z,27.2189,-90.0469,10.5,25.8,11111222
BP,ioos:station:wmo:42880:1,2022-12-05T15:55:00Z,27.2189,-90.0469,10.5,25.8,11111222
BP,ioos:station:wmo:42880:1,2022-12-05T16:05:00Z,27.2189,-90.0469,10.5,25.8,11111222
BP,ioos:station:wmo:42880:1,2022-12-05T16:15:00Z,27.2189,-90.0469,10.5,25.8,11111222